Regional Weather Roundup
Issued by NWS

Home | Current Version | Previous Version | Graphics & Text | Print | Product List | Glossary On
Versions: 1 2 3 4 5 6 7 8 9 10 11 12 13 14 15 16 17 18 19 20 21 22 23 24 25 26 27
000
ASUS45 KPSR 292210
RWRAZ

ARIZONA HOURLY REGIONAL WEATHER ROUNDUP
NATIONAL WEATHER SERVICE PHOENIX AZ
300 PM MST MON AUG 29 2016

NOTE: FAIR INDICATES FEW OR NO CLOUDS BELOW 12,000 FEET WITH NO
SIGNIFICANT WEATHER AND/OR OBSTRUCTIONS TO VISIBILITY.

AZZ001>003-036-292300-
NORTHWEST ARIZONA

CITY           SKY/WX    TMP DP  RH WIND       PRES   REMARKS
BULLHEAD CITY  SUNNY    109  46  12 N9        29.81F HX 105
KINGMAN        SUNNY     96  42  15 VRB7      30.05F
$$

AZZ004>008-015-016-018-292300-
NORTH CENTRAL ARIZONA

CITY           SKY/WX    TMP DP  RH WIND       PRES   REMARKS
GRAND CANYON   SUNNY     78  43  28 E9        30.31F
PRESCOTT       MOSUNNY   83  48  29 VRB3      30.16F
FLAGSTAFF      SUNNY     75  41  29 NE10G20   30.32F
PAYSON         SUNNY     84  41  21 NE12G17   30.19F HAZE
PAGE           SUNNY     90  38  16 E13       30.13F
$$

AZZ009>014-017-292300-
NORTHEAST ARIZONA

CITY           SKY/WX    TMP DP  RH WIND       PRES   REMARKS
WINSLOW        SUNNY     84  43  23 S6        30.17F
SAINT JOHNS    SUNNY     83  40  21 S6        30.20F
WINDOW ROCK    MOSUNNY   80  38  22 N6        30.30F
SHOW LOW       PTSUNNY   73  37  27 CALM      30.27S
$$

AZZ023-292300-
GREATER PHOENIX AREA

CITY           SKY/WX    TMP DP  RH WIND       PRES   REMARKS
PHOENIX        MOSUNNY  103  42  12 VRB6      29.82F
BUCKEYE        SUNNY    102  46  15 S8        29.83F
GLENDALE       MOSUNNY  106  43  11 VRB5      29.83F HX 101
LUKE AFB       SUNNY    104  44  13 N7        29.81F HX 100
DEER VALLEY    SUNNY    101  44  14 NW6       29.84F
SCOTTSDALE     SUNNY    102  41  12 W3        29.86F
MESA-FALCON    MOSUNNY  N/A N/A N/A NE17      29.82F
MESA-GATEWAY   SUNNY     99  43  14 VRB6      29.86F
CHANDLER       SUNNY    100  41  13 E8        29.84F
$$

AZZ027-028-292300-
SOUTHWEST MARICOPA COUNTY AND PINAL COUNTY

CITY           SKY/WX    TMP DP  RH WIND       PRES   REMARKS
CASA GRANDE    SUNNY     99  43  14 W7        29.89F
GILA BEND      SUNNY    103  41  12 VRB6      29.81F
$$

AZZ503-504-507>509-292300-
SOUTHEAST ARIZONA

CITY           SKY/WX    TMP DP  RH WIND       PRES   REMARKS
TUCSON         SUNNY     99  38  12 NW3       29.95F
DAVIS-MONTHAN  SUNNY     97  39  13 VRB3      29.94F
RYAN FIELD     SUNNY     99  39  12 W6        29.94F
NOGALES        PTSUNNY   94  42  16 VRB6      30.02F
SIERRA VISTA   SUNNY     91  39  15 NE3       30.10F
DOUGLAS        PTSUNNY   89  51  27 E15       30.06F
SAFFORD        SUNNY     94  40  15 SW6       29.97F
$$

AZZ020-021-025-026-031-292300-
SOUTHWEST ARIZONA

CITY           SKY/WX    TMP DP  RH WIND       PRES   REMARKS
YUMA           MOSUNNY  107  43  11 S3        29.77F HX 102
$$

CAZ031-033-041-043-047-048-061-292300-
SOUTHERN CALIFORNIA

CITY           SKY/WX    TMP DP  RH WIND       PRES   REMARKS
DOWNTOWN L.A.  SUNNY     82  61  48 VRB5      29.88F
L.A. AIRPORT   MOSUNNY   77  61  57 W15       29.89F
SAN DIEGO      MOSUNNY   77  64  64 W14       29.90F
BURBANK        SUNNY     92  61  35 SE7       29.88F
ONTARIO        MOSUNNY   99  51  19 W15       29.87F
RIVERSIDE      SUNNY    100  55  22 W12G18    29.86F
PALM SPRINGS   SUNNY    111  39   8 SE9       29.80F HX 105
EL CENTRO NAS  MOSUNNY  108  42  10 CALM      29.78F HX 102
IMPERIAL       SUNNY    110  51  14 VRB6G16   29.75F HX 107
BLYTHE         SUNNY    107  45  12 MISG      29.79F HX 102
NEEDLES        SUNNY    110  42  10 NE7       29.83F HX 104
$$

NVZ020-UTZ003-292300-
SOUTHERN NEVADA-UTAH

CITY           SKY/WX    TMP DP  RH WIND       PRES   REMARKS
LAS VEGAS      MOSUNNY  103  33   9 E8        29.95F
SALT LAKE CITY MOSUNNY   95  28   9 NW12      30.13F
$$

NMZ009-TXZ055-292300-
NEW MEXICO-WEST TEXAS

CITY           SKY/WX    TMP DP  RH WIND       PRES   REMARKS
ALBUQUERQUE    MOSUNNY   79  46  31 E14       30.21F
EL PASO        PTSUNNY   86  57  37 E9G16     30.08F
$$


........................KEY........................
SKY/WX - SKY CONDITION/WEATHER
TMP    - TEMPERATURE IN FAHRENHEIT
DP     - DEW POINT IN FAHRENHEIT
RH     - RELATIVE HUMIDITY IN PERCENT
WIND   - DIRECTION AND SPEED IN MILES PER HOUR (MPH)
VRB    - VARIABLE WIND DIRECTION
PRES   - MEAN SEA LEVEL PRESSURE IN INCHES OF MERCURY
         F - FALLING PRESSURE   R - RISING PRESSURE
         S - STEADY PRESSURE
VSB    - VISIBILITY IN MILES
HX     - HEAT INDEX IN FAHRENHEIT
WCI    - WIND CHILL INDEX IN FAHRENHEIT
TC     - TEMPERATURE IN CELSIUS WHICH IS ALSO KNOWN AS
         TEMPERATURE IN CENTIGRADE
AFB    - AIR FORCE BASE
         LUKE AFB IS LUKE AIR FORCE BASE
         DAVIS-MONTHAN IS DAVIS-MONTHAN AIR FORCE BASE
NAS    - NAVAL AIR STATION
         EL CENTRO NAS IS EL CENTRO NAVAL AIR STATION
N/A    - NOT AVAILABLE





USA.gov is the U.S. government's official web portal to all federal, state and local government web resources and services.